Location: El Abasto
(10.3790°N, 67.5897°W)
Time: 07:44:00
(UTC+00:00)

YAOGAN 3 - Pass Details

Date: 19 May 2024
Orbit: 612 x 613 km, 97.9° (Epoch: 23 June)

Event Time Altitude Azimuth Distance (km) Brightness Sun altitude
Rises 23:29:06 0° 167° (SSE) 2,872 7.6 -10.7°
Reaches altitude 10° 23:31:17 10° 166° (SSE) 1,967 6.8 -11.2°
Maximum altitude 23:35:33 82° 79° (E) 622 4.5 -12.2°
Drops below altitude 10° 23:39:50 10° 351° (N) 1,967 7.6 -13.1°
Sets 23:42:01 0° 350° (N) 2,871 8.5 -13.6°
